Waarnemingen

Advertentie
Mijn weer
Saint-Brieuc, Frankrijk (7120): temperatuur & dauwpunt: 14.10.2017 21:00:00 - 20.10.2017 21:00:00 (CEST)Saint-Brieuc, Frankrijk (7120): temperatuur 5cm: 14.10.2017 21:00:00 - 20.10.2017 21:00:00 (CEST)Saint-Brieuc, Frankrijk (7120): temperatuur -20cm & temperatuur -100cm: 14.10.2017 21:00:00 - 20.10.2017 21:00:00 (CEST)Saint-Brieuc, Frankrijk (7120): windsnelheid & windstoten: 14.10.2017 21:00:00 - 20.10.2017 21:00:00 (CEST)Saint-Brieuc, Frankrijk (7120): windrichting: 14.10.2017 21:00:00 - 20.10.2017 21:00:00 (CEST)Saint-Brieuc, Frankrijk (7120): luchtdruk: 14.10.2017 21:00:00 - 20.10.2017 21:00:00 (CEST)Saint-Brieuc, Frankrijk (7120): zicht: 14.10.2017 21:00:00 - 20.10.2017 21:00:00 (CEST)Saint-Brieuc, Frankrijk (7120): Zonneschijnduur: 14.10.2017 21:00:00 - 20.10.2017 21:00:00 (CEST)Saint-Brieuc, Frankrijk (7120): neerslag: 14.10.2017 21:00:00 - 20.10.2017 21:00:00 (CEST)
Datum & Tijd tt [°C] td [°C] tt 5cm [°C] tt -20cm [°C] tt -100cm [°C] ff [km/u] ff [kn] fx [km/u] fx [kn] dd ppp [hPa] vv [km] sd [min] rr [mm]
20.10.2017 21:00:00 15,3 13,5 14,5 14,4 15,1 24 13 48 26 ZZW 1007,8 10 0 0,0
20.10.2017 20:00:00 14,9 12,4 14,4 14,4 15,1 22 12 49 26 ZZW 1008,8 10 0 0,0
20.10.2017 19:00:00 15,0 11,2 14,3 14,4 15,1 18 10 43 23 ZZW 1009,2 10 10 0,0
20.10.2017 18:00:00 15,5 10,7 15,9 14,3 15,1 21 11 48 26 ZW 1010,0 10 51 0,0
20.10.2017 17:00:00 16,1 9,5 16,0 14,3 15,1 22 12 53 28 ZW 1010,8 20 35 0,0
20.10.2017 16:00:00 15,7 9,6 16,4 14,2 15,1 18 10 45 24 ZW 1011,3 10 34 0,0
20.10.2017 15:00:00 15,8 8,5 16,5 14,0 15,1 21 11 44 24 ZW 1012,0 10 43 0,0
20.10.2017 14:00:00 15,2 8,9 15,8 13,9 15,1 16 9 39 21 WZW 1012,7 10 40 0,0
20.10.2017 13:00:00 14,6 8,3 15,7 13,8 15,1 18 10 30 16 ZW 1012,9 10 55 0,0
20.10.2017 12:00:00 13,4 8,9 15,1 13,7 15,1 11 6 28 15 WZW 1013,2 10 60 0,0
20.10.2017 11:00:00 12,7 8,8 11,9 13,8 15,1 15 8 27 14 W 1013,0 10 43 0,0
20.10.2017 10:00:00 10,7 8,3 9,0 13,8 15,1 11 6 21 11 WZW 1012,8 10 16 0,0
20.10.2017 09:00:00 9,6 7,9 8,5 13,9 15,1 14 7 28 15 W 1011,9 20 0 0,0
20.10.2017 08:00:00 9,8 8,1 8,5 14,1 15,1 16 9 27 14 W 1010,9 10 0 0,0
20.10.2017 07:00:00 9,8 8,1 8,9 14,2 15,1 18 10 31 17 W 1010,5 20 0 0,0
20.10.2017 06:00:00 10,0 8,3 8,9 14,3 15,1 15 8 32 17 W 1009,8 20 0 0,0
20.10.2017 05:00:00 10,0 8,3 9,0 14,4 15,1 17 9 38 21 W 1009,1 20 0 0,0
20.10.2017 04:00:00 10,3 8,4 9,4 14,5 15,1 24 13 40 22 W 1008,5 20 0 0,0
20.10.2017 03:00:00 10,5 8,4 9,6 14,7 15,1 21 12 36 20 W 1007,3 20 0 0,0
20.10.2017 02:00:00 10,8 8,6 9,7 14,8 15,1 24 13 39 21 W 1006,9 20 0 0,0
20.10.2017 01:00:00 11,0 8,9 10,1 14,9 15,1 24 13 44 24 W 1006,2 20 0 0,0
20.10.2017 00:00:00 11,3 9,6 10,4 15,0 15,1 22 12 35 19 W 1005,6 20 0 0,0
19.10.2017 23:00:00 11,9 10,3 10,6 15,1 15,1 15 8 33 18 W 1004,7 10 0 0,0
19.10.2017 22:00:00 12,1 10,5 10,9 15,2 15,1 21 11 39 21 W 1003,6 10 0 0,0
19.10.2017 21:00:00 13,2 11,8 12,0 15,3 15,1 24 13 35 19 W 1002,5 10 0 0,0
19.10.2017 20:00:00 13,7 12,8 13,1 15,3 15,1 26 14 46 25 W 1001,6 7 0 3,3
19.10.2017 19:00:00 14,0 13,2 13,1 15,4 15,1 22 12 52 28 ZZW 1000,1 3,9 0 2,2
19.10.2017 18:00:00 14,1 12,7 13,2 15,4 15,1 26 14 56 30 ZZW 1000,7 7 0 1,4
19.10.2017 17:00:00 15,7 11,5 14,0 15,4 15,1 26 14 55 30 ZZW 1001,2 10 0 0,0
19.10.2017 16:00:00 16,0 12,4 15,6 15,3 15,1 22 12 53 29 ZZW 1002,0 10 0 0,0
19.10.2017 15:00:00 16,1 12,1 16,6 15,3 15,1 24 13 47 25 ZW 1002,7 10 0 0,0
19.10.2017 14:00:00 16,0 12,4 15,8 15,3 15,1 21 11 44 24 ZW 1003,8 10 2 0,0
19.10.2017 13:00:00 15,1 12,4 15,6 15,2 15,1 16 9 41 22 ZW 1004,7 10 4 0,0
19.10.2017 12:00:00 14,7 12,2 14,8 15,2 15,1 18 10 38 20 ZW 1005,1 10 0 0,2
19.10.2017 11:00:00 15,1 13,6 14,4 15,2 15,1 11 6 22 12 WZW 1005,2 10 0 0,0
19.10.2017 10:00:00 14,5 13,7 13,9 15,2 15,1 9 5 16 9 ZZW 1004,8 7 0 0,0
19.10.2017 09:00:00 14,5 14,2 14,2 15,2 15,1 5 3 9 5 WZW 1004,9 10 0 0,0
19.10.2017 08:00:00 14,6 14,4 14,5 15,2 15,1 5 3 10 5 W 1004,4 10 0 0,0
19.10.2017 07:00:00 15,0 15,0 14,9 15,2 15,1 4 2 8 4 W 1005,3 0,4 0 0,0
19.10.2017 06:00:00 15,0 14,8 14,9 15,2 15,1 4 2 6 4 ZZO 1005,7 0,2 0 0,0
19.10.2017 05:00:00 15,0 14,8 14,7 15,3 15,1 3 2 18 10 ZZO 1006,4 2,1 0 0,2
19.10.2017 04:00:00 15,0 14,8 14,8 15,2 15,1 5 3 11 6 O 1007,3 2,5 0 2,2
19.10.2017 03:00:00 15,1 14,9 14,8 15,2 15,1 5 3 8 4 ONO 1007,9 0,6 0 0,0
19.10.2017 02:00:00 15,0 14,7 14,8 15,2 15,1 4 2 10 5 NO 1008,3 3,3 0 0,0
19.10.2017 01:00:00 14,8 14,5 14,5 15,2 15,1 5 3 11 6 O 1008,8 2,2 0 0,0
19.10.2017 00:00:00 14,6 14,3 13,2 15,3 15,1 5 3 8 5 ONO 1009,3 9 0 0,0
18.10.2017 23:00:00 13,6 13,0 12,3 15,3 15,1 5 3 7 4 - 1009,9 10 0 0,0
18.10.2017 22:00:00 13,2 12,3 11,9 15,4 15,1 4 2 5 3 NO 1010,0 7 0 0,0
18.10.2017 21:00:00 13,3 12,0 10,9 15,5 15,1 4 2 9 5 - 1010,0 10 0 0,0
18.10.2017 20:00:00 13,4 11,8 10,5 15,5 15,1 4 2 9 5 NO 1009,9 10 0 0,0
18.10.2017 19:00:00 14,6 11,7 13,7 15,5 15,1 4 2 9 5 ONO 1009,9 10 0 0,0
18.10.2017 18:00:00 16,1 11,7 16,1 15,4 15,1 5 3 10 6 ONO 1009,7 10 7 0,0
18.10.2017 17:00:00 16,7 12,4 17,3 15,3 15,1 5 3 8 5 NO 1009,6 10 1 0,0
18.10.2017 16:00:00 17,3 12,6 18,0 15,2 15,1 2 1 7 4 ONO 1009,7 10 0 0,0
18.10.2017 15:00:00 17,7 11,5 19,7 15,1 15,1 4 2 13 7 - 1009,9 10 13 0,0
18.10.2017 14:00:00 18,1 8,4 20,1 15,0 15,2 0 0 6 4 N 1010,4 10 24 0,0
18.10.2017 13:00:00 17,6 12,5 17,9 14,8 15,1 0 0 6 3 N 1010,7 10 7 0,0
18.10.2017 12:00:00 16,1 13,0 14,6 14,7 15,1 5 3 9 5 - 1011,0 10 35 0,0
18.10.2017 11:00:00 14,4 12,3 13,1 14,7 15,2 4 2 10 6 - 1010,7 10 28 0,0
18.10.2017 10:00:00 14,0 11,9 12,6 14,7 15,1 5 3 9 5 W 1010,9 10 35 0,4
18.10.2017 09:00:00 13,5 12,6 12,9 14,7 15,1 5 3 12 7 NW 1010,7 6 0 0,4
18.10.2017 08:00:00 14,5 14,0 14,1 14,7 15,2 4 2 8 4 W 1010,6 5 0 0,2
18.10.2017 07:00:00 14,7 14,4 14,4 14,7 15,1 4 2 9 5 ZW 1010,8 5 0 0,0
18.10.2017 06:00:00 14,7 14,2 13,7 14,7 15,2 4 2 11 6 ZW 1010,9 4,1 0 0,0
18.10.2017 05:00:00 14,3 13,8 13,0 14,7 15,1 6 3 14 7 Z 1010,5 7 0 0,0
18.10.2017 04:00:00 13,7 13,2 13,1 14,7 15,2 3 2 6 3 Z 1011,2 9 0 0,0
18.10.2017 03:00:00 13,4 12,8 12,9 14,7 15,1 2 1 6 3 WZW 1011,4 12 0 0,0
18.10.2017 02:00:00 13,4 12,9 12,6 14,7 15,2 0 0 4 2 N 1011,5 12 0 0,0
18.10.2017 01:00:00 13,4 12,8 12,5 14,7 15,1 0 0 10 5 N 1012,1 10 0 0,0
18.10.2017 00:00:00 13,6 12,8 12,9 14,7 15,2 6 3 8 4 W 1012,7 10 0 0,0
17.10.2017 23:00:00 14,1 13,3 12,8 14,7 15,2 4 2 7 4 - 1012,8 10 0 0,0
17.10.2017 22:00:00 14,2 13,1 13,5 14,7 15,2 5 3 6 3 NO 1013,0 10 0 0,0
17.10.2017 21:00:00 14,3 13,2 13,8 14,7 15,2 4 2 21 11 - 1013,7 10 0 0,0
17.10.2017 20:00:00 14,3 12,3 13,8 14,7 15,2 9 5 21 12 O 1013,8 10 0 0,0
17.10.2017 19:00:00 14,3 11,8 14,0 14,7 15,2 9 5 23 12 O 1014,9 10 0 0,0
17.10.2017 18:00:00 14,6 11,2 14,3 14,7 15,2 18 10 27 15 O 1015,0 10 0 0,0
17.10.2017 17:00:00 14,3 9,5 14,5 14,7 15,2 16 9 29 16 O 1015,7 10 0 0,0
17.10.2017 16:00:00 14,4 10,2 15,0 14,6 15,1 18 10 36 20 O 1016,5 10 7 0,0
17.10.2017 15:00:00 15,2 12,5 15,6 14,5 15,1 22 12 33 18 ONO 1017,1 10 34 0,0
17.10.2017 14:00:00 14,2 11,9 14,2 14,4 15,1 16 9 26 14 O 1018,3 10 1 0,0
17.10.2017 13:00:00 12,9 11,0 12,1 14,5 15,2 8 4 15 8 ONO 1019,4 10 0 0,0
17.10.2017 12:00:00 12,4 10,3 11,7 14,4 15,1 5 3 10 5 - 1020,0 10 0 0,2
17.10.2017 11:00:00 12,1 10,3 10,7 14,5 15,2 5 3 10 6 ZZO 1020,9 10 0 0,0
17.10.2017 10:00:00 11,3 9,6 10,5 14,5 15,1 5 3 10 5 - 1021,0 10 0 0,0
17.10.2017 09:00:00 10,9 9,3 9,7 14,5 15,2 5 3 9 5 Z 1021,1 10 0 0,0
17.10.2017 08:00:00 11,0 9,6 10,5 14,6 15,1 5 3 10 5 Z 1021,4 10 0 0,0
17.10.2017 07:00:00 11,1 9,5 10,6 14,6 15,1 2 1 8 4 ZZO 1020,8 17 0 0,0
17.10.2017 06:00:00 10,9 9,2 10,2 14,7 15,2 7 4 10 5 Z 1021,6 18 0 0,0
17.10.2017 05:00:00 11,6 8,8 9,2 14,7 15,1 5 3 8 5 Z 1021,9 19 0 0,0
17.10.2017 04:00:00 10,9 8,6 8,8 14,8 15,1 5 3 8 4 ZW 1022,5 18 0 0,0
17.10.2017 03:00:00 11,3 9,2 7,9 15,0 15,1 5 3 8 5 ZW 1022,8 16 0 0,0
17.10.2017 02:00:00 10,4 8,8 6,6 15,1 15,1 5 3 11 6 WZW 1022,9 15 0 0,0
17.10.2017 01:00:00 9,5 7,9 6,9 15,2 15,1 0 0 11 6 N 1023,2 16 0 0,0
17.10.2017 00:00:00 11,3 8,9 9,0 15,3 15,1 4 2 16 9 Z 1023,1 18 0 0,0
16.10.2017 23:00:00 11,7 8,9 9,8 15,4 15,1 8 4 16 9 ZW 1022,7 10 0 0,0
16.10.2017 22:00:00 12,0 7,9 10,2 15,6 15,1 8 4 17 9 ZW 1022,5 10 0 0,0
16.10.2017 21:00:00 13,2 7,6 11,4 15,7 15,1 9 5 21 11 W 1022,1 10 0 0,0
16.10.2017 20:00:00 14,2 7,9 12,1 15,8 15,1 11 6 25 14 W 1021,7 10 0 0,0
16.10.2017 19:00:00 15,5 8,5 14,8 15,8 15,1 21 11 38 21 W 1020,5 10 53 0,0
16.10.2017 18:00:00 17,3 9,2 17,6 15,8 15,1 18 10 39 21 W 1019,6 10 60 0,0
16.10.2017 17:00:00 17,9 10,0 18,2 15,8 15,2 13 7 35 19 WZW 1018,9 10 29 0,0
16.10.2017 16:00:00 17,8 11,6 17,0 15,8 15,1 18 10 37 20 WZW 1018,8 10 12 0,0
16.10.2017 15:00:00 16,6 12,3 16,1 15,8 15,1 15 8 42 23 WZW 1018,3 10 0 0,0
16.10.2017 14:00:00 16,7 11,8 16,5 15,8 15,1 21 11 45 24 WZW 1017,6 10 0 0,0
16.10.2017 13:00:00 17,5 13,2 17,1 15,8 15,1 21 11 49 26 WZW 1016,9 10 0 0,0
16.10.2017 12:00:00 18,3 15,2 18,0 15,8 15,1 21 11 51 28 ZW 1015,6 10 0 0,0
16.10.2017 11:00:00 18,5 15,9 18,0 15,8 15,1 22 12 48 26 ZW 1014,9 10 0 0,0
16.10.2017 10:00:00 18,5 15,7 17,8 15,8 15,1 26 14 53 29 ZZW 1014,5 10 0 0,0
16.10.2017 09:00:00 18,3 15,0 17,3 15,8 15,1 24 13 58 31 ZZW 1014,2 10 0 0,0
16.10.2017 08:00:00 18,3 14,6 17,2 15,9 15,1 26 14 56 30 Z 1013,1 10 0 0,0
16.10.2017 07:00:00 18,1 14,6 17,2 15,9 15,1 21 11 43 23 Z 1013,5 20 0 0,0
16.10.2017 06:00:00 18,3 15,0 17,2 15,9 15,1 23 12 42 23 Z 1013,8 20 0 0,0
16.10.2017 05:00:00 18,4 15,1 17,6 16,0 15,1 22 12 43 23 ZZW 1014,6 20 0 0,0
16.10.2017 04:00:00 18,8 15,5 17,8 16,0 15,1 23 13 41 22 ZZW 1015,3 20 0 0,0
16.10.2017 03:00:00 18,6 15,5 17,7 16,0 15,1 25 13 45 24 ZZW 1016,1 20 0 0,0
16.10.2017 02:00:00 18,8 14,7 18,1 16,0 15,1 24 13 50 27 ZZW 1016,3 20 0 0,0
16.10.2017 01:00:00 19,3 14,5 18,4 16,1 15,1 28 15 53 29 ZZW 1016,5 20 0 0,0
16.10.2017 00:00:00 19,2 14,9 18,1 16,1 15,1 25 14 45 25 ZZW 1016,7 20 0 0,0
15.10.2017 23:00:00 18,9 15,0 18,1 16,1 15,1 24 13 42 23 ZZW 1016,9 10 0 0,0
15.10.2017 22:00:00 18,6 15,7 18,0 16,1 15,1 24 13 45 24 ZZW 1017,1 10 0 0,0
15.10.2017 21:00:00 18,6 15,8 18,1 16,1 15,1 29 16 53 28 ZZW 1017,0 10 0 0,0
15.10.2017 20:00:00 18,9 15,9 18,4 16,0 15,1 22 12 42 23 ZZW 1016,9 10 0 0,0
15.10.2017 19:00:00 19,9 16,5 19,5 15,9 15,1 24 13 50 27 ZZW 1016,8 10 0 0,0
15.10.2017 18:00:00 21,9 16,6 21,7 15,8 15,1 16 9 46 25 ZZW 1016,5 10 13 0,0
15.10.2017 17:00:00 22,1 16,8 22,3 15,6 15,1 22 12 49 26 ZZW 1016,3 10 50 0,0
15.10.2017 16:00:00 22,3 16,6 22,3 15,4 15,2 24 13 57 31 ZZW 1016,8 10 40 0,0
15.10.2017 15:00:00 20,8 14,4 20,7 15,3 15,1 16 9 32 17 ZZW 1017,2 10 3 0,0
15.10.2017 14:00:00 20,6 14,0 22,8 15,1 15,1 15 8 29 16 Z 1017,6 10 60 0,0
15.10.2017 13:00:00 19,5 14,1 19,1 15,0 15,1 16 9 33 18 Z 1018,4 10 60 0,0
15.10.2017 12:00:00 17,0 13,7 18,0 14,9 15,1 22 12 41 22 ZZW 1018,8 10 39 0,0
15.10.2017 11:00:00 16,2 13,5 16,5 14,9 15,1 24 13 44 24 ZZW 1018,9 8 60 0,0
15.10.2017 10:00:00 15,0 13,2 13,6 15,0 15,1 21 11 35 19 ZZW 1018,7 8 16 0,2
15.10.2017 09:00:00 14,2 12,9 13,2 15,0 15,1 4 2 19 10 ZZW 1019,0 8 0 0,0
15.10.2017 08:00:00 14,5 13,0 12,9 15,0 15,1 11 6 22 12 ZW 1019,0 8 0 0,0
15.10.2017 07:00:00 15,3 13,5 14,6 15,1 15,1 9 5 24 13 ZW 1019,0 9 0 0,0
15.10.2017 06:00:00 15,5 13,9 14,5 15,1 15,1 12 7 26 14 ZW 1018,9 9 0 0,0
15.10.2017 05:00:00 15,6 14,0 14,7 15,1 15,1 13 7 37 20 ZW 1019,0 9 0 0,0
15.10.2017 04:00:00 16,0 14,5 14,9 15,1 15,1 15 8 39 21 ZW 1019,2 9 0 0,0
15.10.2017 03:00:00 15,7 14,4 14,6 15,2 15,1 20 11 45 25 ZW 1019,4 8 0 0,0
15.10.2017 02:00:00 15,2 14,2 14,1 15,2 15,1 20 11 41 22 ZW 1019,7 7 0 0,0
15.10.2017 01:00:00 15,6 13,8 14,6 15,2 15,1 25 13 40 22 ZZW 1019,8 12 0 0,0
15.10.2017 00:00:00 16,0 13,3 13,1 15,3 15,1 14 8 24 13 Z 1020,1 20 0 0,0
14.10.2017 23:00:00 14,9 13,4 12,2 15,4 15,1 8 4 12 7 Z 1020,6 10 0 0,0
14.10.2017 22:00:00 14,8 14,3 11,7 15,5 15,1 9 5 11 6 ZZO 1021,1 10 0 0,0
14.10.2017 21:00:00 14,2 13,9 11,1 15,5 15,1 8 4 10 5 ZZO 1021,6 5 0 0,0

tt = temperatuur
td = dauwpunt
tt 5cm = temperatuur 5cm
tt -20cm = temperatuur -20cm
tt -100cm = temperatuur -100cm
ff = windsnelheid
fx = windstoten
dd = windrichting
ppp = luchtdruk
vv = zicht
sd = Zonneschijnduur
rr = neerslag

Weerstations in de omgeving